Regional Weather Roundup
Issued by NWS Kansas City/Pleasant Hill, MO

Home | Current Version | Previous Version | Text Only | Print | Product List | Glossary On
Versions: 1 2 3 4 5 6 7 8 9 10 11 12 13 14 15 16 17 18 19 20 21 22 23 24 25 26 27 28 29 30 31 32 33 34 35 36 37 38 39 40 41 42 43 44 45 46 47 48 49 50
000
ASUS43 KEAX 230211
RWREAX

WEATHER ROUNDUP FOR EASTERN KANSAS AND NORTHWEST MISSOURI
NATIONAL WEATHER SERVICE KANSAS CITY/PLEASANT HILL MO
900 PM CDT FRI AUG 22 2014

KSZ040-057-103>105-MOZ028-029-037-043-230300-
...KANSAS CITY METROPOLITAN AREA...

CITY           SKY/WX    TMP DP  RH WIND       PRES   REMARKS
K.C. INTL      CLOUDY    82  70  66 CALM      29.91R
K.C. DOWNTOWN  CLOUDY    85  65  51 W6        29.89R
LEES SUMMIT    MOCLDY    79  70  74 SE3       29.90R
OLATHE - IXD   CLOUDY    79  68  69 SW3       29.91R
OLATHE - OJC   CLOUDY    79  67  66 S5        29.90R
LAWRENCE       CLOUDY    82  73  74 SE5       29.89R

$$

MOZ001>008-011>017-020>025-030>033-038>040-044>046-053-054-230300-
...NORTHERN AND CENTRAL MISSOURI...

CITY           SKY/WX    TMP DP  RH WIND       PRES   REMARKS
ST. JOSEPH     CLOUDY    78  76  93 N6        29.91R
MOSBY          CLOUDY    82  77  83 CALM      29.90R HX  91
WHITEMAN AFB   MOCLDY    81  73  76 E1        29.90S
CLINTON        MOCLDY    81  73  78 NW3       29.91S
SEDALIA        MOCLDY    82  77  84 CALM      29.91F HX  90
WARSAW         NOT AVBL
MARSHALL       MOCLDY    86  81  84 E5        29.92R HX 102
CHILLICOTHE      N/A     82  77  84 CALM      29.93R HX  90
MOBERLY        PTCLDY    81  75  83 NE6       29.93F HAZE
KIRKSVILLE     PTCLDY    81  77  88 E5        29.94S

$$

MOZ041-047>049-056>058-063>065-088>090-097-230300-
...EASTERN AND SOUTHERN MISSOURI...

CITY           SKY/WX    TMP DP  RH WIND       PRES   REMARKS
ST. LOUIS INTL MOCLDY    87  76  69 E3        29.93R HX  97
SPIRIT OF STL  MOCLDY    81  78  91 CALM      29.91R
COLUMBIA       MOCLDY    85  78  80 E5        29.92S HX  96
JEFFERSON CITY PTCLDY    83  76  79 CALM      29.89S HX  91
MEXICO         MOCLDY   N/A N/A N/A CALM      29.93R
HANNIBAL       CLEAR     82  79  89 NE3       29.95R HX  93
ROLLA          PTCLDY    84  67  56 S7        29.93R
LEBANON        PTCLDY    88  66  48 S6        29.96S HX  90
OSAGE BEACH    CLEAR     84  73  70 CALM      29.92S HX  91
SPRINGFIELD    MOCLDY    84  68  58 S9        29.95S
BRANSON        PTCLDY    86  72  62 S7        29.99F HX  92
NEVADA         CLEAR     82  70  65 S6        29.93R
JOPLIN         CLEAR     87  72  60 S10       29.93S HX  93
WEST PLAINS    CLEAR     82  70  66 CALM      29.99S

$$

IAZ060-094-KSZ022-034>040-054-083-096-NEZ052-066-093-230300-
...KANSAS...SOUTHEAST NEBRASKA AND IOWA...

CITY           SKY/WX    TMP DP  RH WIND       PRES   REMARKS
TOPEKA         CLOUDY    84  71  65 CALM      29.89R
MANHATTAN      CLOUDY    83  67  58 CALM      29.88R
EMPORIA        MOCLDY    74  67  78 SE7       29.89R
CHANUTE        CLEAR     82  69  64 SE6       29.91S
WICHITA        PTCLDY    89  66  46 SE13      29.87R HX  91
OMAHA          CLOUDY    77  74  90 SE6       29.91F
LINCOLN        MOCLDY    83  69  62 SE13      29.91S
FALLS CITY     CLOUDY    77  74  90 NE6       29.91S
LAMONI         CLOUDY    78  76  93 N7        29.96R
DES MOINES     CLOUDY    81  75  82 CALM      29.95R

$$



USA.gov is the U.S. government's official web portal to all federal, state and local government web resources and services.